Time,TemperatureF,DewpointF,PressureIn,WindDirection,WindDirectionDegrees,WindSpeedMPH,WindSpeedGustMPH,Humidity,HourlyPrecipIn,Conditions,Clouds,dailyrainin,SoftwareType,DateUTC
2013-03-19 00:03:00,35.0,34.0,29.91,ENE,65,2.0,10.0,97,0.07,,,0.50,,2013-03-19 04:03:00,
2013-03-19 00:13:00,35.0,34.0,29.91,ENE,65,2.0,10.0,97,0.07,,,0.50,,2013-03-19 04:13:00,
2013-03-19 00:23:00,36.0,35.0,29.91,East,84,2.0,6.0,97,0.06,,,0.51,,2013-03-19 04:23:00,
2013-03-19 00:33:00,36.0,35.0,29.89,ENE,57,1.0,7.0,97,0.06,,,0.52,,2013-03-19 04:33:00,
2013-03-19 00:43:00,36.0,35.0,29.89,ENE,57,1.0,7.0,97,0.06,,,0.52,,2013-03-19 04:43:00,
2013-03-19 00:53:00,36.0,35.0,29.88,NNE,17,1.0,6.0,97,0.05,,,0.52,,2013-03-19 04:53:00,
2013-03-19 01:02:00,36.0,35.0,29.88,ENE,63,1.0,5.0,97,0.04,,,0.54,,2013-03-19 05:02:00,
2013-03-19 01:12:00,36.0,35.0,29.88,ENE,63,1.0,5.0,97,0.04,,,0.54,,2013-03-19 05:12:00,
2013-03-19 01:22:00,36.0,35.0,29.86,ESE,114,2.0,7.0,97,0.04,,,0.55,,2013-03-19 05:22:00,
2013-03-19 01:32:00,36.0,35.0,29.86,NE,44,1.0,5.0,97,0.03,,,0.55,,2013-03-19 05:32:00,
2013-03-19 01:43:00,36.0,35.0,29.86,NE,44,1.0,5.0,97,0.03,,,0.55,,2013-03-19 05:43:00,
2013-03-19 01:52:00,36.0,35.0,29.85,ENE,58,3.0,5.0,97,0.05,,,0.57,,2013-03-19 05:52:00,
2013-03-19 02:02:00,36.0,35.0,29.85,NNE,30,2.0,5.0,97,0.04,,,0.58,,2013-03-19 06:02:00,
2013-03-19 02:12:00,36.0,35.0,29.85,NNE,30,2.0,5.0,97,0.04,,,0.58,,2013-03-19 06:12:00,
2013-03-19 02:22:00,37.0,36.0,29.86,ENE,61,2.0,5.0,97,0.05,,,0.60,,2013-03-19 06:22:00,
2013-03-19 02:32:00,37.0,36.0,29.85,NE,49,2.0,5.0,97,0.07,,,0.62,,2013-03-19 06:32:00,
2013-03-19 02:42:00,37.0,36.0,29.85,NE,49,2.0,5.0,97,0.07,,,0.62,,2013-03-19 06:42:00,
2013-03-19 02:52:00,37.0,36.0,29.85,NE,49,2.0,5.0,97,0.07,,,0.62,,2013-03-19 06:52:00,
2013-03-19 03:02:00,37.0,36.0,29.83,NNE,26,2.0,5.0,98,0.05,,,0.64,,2013-03-19 07:02:00,
2013-03-19 03:12:00,37.0,36.0,29.83,NNE,26,2.0,5.0,98,0.05,,,0.64,,2013-03-19 07:12:00,
2013-03-19 03:22:00,37.0,36.0,29.82,NNE,24,2.0,7.0,98,0.05,,,0.65,,2013-03-19 07:22:00,
2013-03-19 03:32:00,37.0,36.0,29.82,NNE,24,2.0,7.0,98,0.05,,,0.65,,2013-03-19 07:32:00,
2013-03-19 03:42:00,37.0,36.0,29.82,NNE,24,2.0,7.0,98,0.05,,,0.65,,2013-03-19 07:42:00,
2013-03-19 03:53:00,37.0,36.0,29.82,NNE,24,2.0,7.0,98,0.05,,,0.65,,2013-03-19 07:53:00,
2013-03-19 04:03:00,37.0,36.0,29.80,East,79,1.0,11.0,97,0.01,,,0.65,,2013-03-19 08:03:00,
2013-03-19 04:13:00,37.0,36.0,29.80,East,79,1.0,11.0,97,0.01,,,0.65,,2013-03-19 08:13:00,
2013-03-19 04:22:00,37.0,36.0,29.80,ENE,67,4.0,7.0,97,0.00,,,0.65,,2013-03-19 08:22:00,
2013-03-19 04:32:00,37.0,36.0,29.80,ESE,109,2.0,5.0,96,0.00,,,0.65,,2013-03-19 08:32:00,
2013-03-19 04:42:00,37.0,36.0,29.80,ESE,109,2.0,5.0,96,0.00,,,0.65,,2013-03-19 08:42:00,
2013-03-19 04:52:00,37.0,36.0,29.78,ENE,77,1.0,5.0,96,0.00,,,0.65,,2013-03-19 08:52:00,
2013-03-19 05:02:00,37.0,36.0,29.78,NNE,31,1.0,6.0,96,0.00,,,0.65,,2013-03-19 09:02:00,
2013-03-19 05:12:00,37.0,36.0,29.78,NNE,31,1.0,6.0,96,0.00,,,0.65,,2013-03-19 09:12:00,
2013-03-19 05:22:00,36.0,35.0,29.77,NE,36,2.0,6.0,97,0.00,,,0.65,,2013-03-19 09:22:00,
2013-03-19 05:32:00,36.0,35.0,29.76,NE,53,1.0,7.0,96,0.00,,,0.65,,2013-03-19 09:32:00,
2013-03-19 05:43:00,36.0,35.0,29.76,NE,53,1.0,7.0,96,0.00,,,0.65,,2013-03-19 09:43:00,
2013-03-19 05:53:00,36.0,35.0,29.76,ENE,72,2.0,6.0,96,0.00,,,0.65,,2013-03-19 09:53:00,
2013-03-19 06:03:00,36.0,35.0,29.77,East,86,1.0,5.0,97,0.00,,,0.65,,2013-03-19 10:03:00,
2013-03-19 06:13:00,36.0,35.0,29.77,East,86,1.0,5.0,97,0.00,,,0.65,,2013-03-19 10:13:00,
2013-03-19 06:23:00,36.0,35.0,29.76,NNE,24,1.0,4.0,97,0.00,,,0.65,,2013-03-19 10:23:00,
2013-03-19 06:32:00,36.0,35.0,29.76,NE,36,1.0,4.0,97,0.00,,,0.65,,2013-03-19 10:32:00,
2013-03-19 06:42:00,36.0,35.0,29.76,NE,36,1.0,4.0,97,0.00,,,0.65,,2013-03-19 10:42:00,
2013-03-19 06:53:00,36.0,35.0,29.77,NE,42,1.0,3.0,97,0.00,,,0.65,,2013-03-19 10:53:00,
2013-03-19 07:02:00,36.0,35.0,29.77,NE,42,1.0,3.0,97,0.00,,,0.65,,2013-03-19 11:02:00,
2013-03-19 07:12:00,36.0,35.0,29.77,NE,42,1.0,3.0,97,0.00,,,0.65,,2013-03-19 11:12:00,
2013-03-19 07:22:00,36.0,35.0,29.76,NE,43,1.0,5.0,97,0.00,,,0.65,,2013-03-19 11:22:00,
2013-03-19 07:33:00,36.0,35.0,29.75,NE,42,1.0,4.0,97,0.00,,,0.65,,2013-03-19 11:33:00,
2013-03-19 07:43:00,36.0,35.0,29.75,NE,42,1.0,4.0,97,0.00,,,0.65,,2013-03-19 11:43:00,
2013-03-19 07:53:00,36.0,35.0,29.76,ESE,108,1.0,4.0,97,0.00,,,0.65,,2013-03-19 11:53:00,
2013-03-19 08:02:00,36.0,35.0,29.75,NE,53,2.0,4.0,98,0.00,,,0.65,,2013-03-19 12:02:00,
2013-03-19 08:12:00,36.0,35.0,29.75,NNE,32,1.0,4.0,98,0.00,,,0.65,,2013-03-19 12:12:00,
2013-03-19 08:22:00,36.0,35.0,29.75,NNE,32,1.0,4.0,98,0.00,,,0.65,,2013-03-19 12:22:00,
2013-03-19 08:33:00,36.0,35.0,29.75,NE,46,1.0,3.0,98,0.00,,,0.65,,2013-03-19 12:33:00,
2013-03-19 08:42:00,36.0,35.0,29.75,NE,46,1.0,3.0,98,0.00,,,0.65,,2013-03-19 12:42:00,
2013-03-19 08:52:00,36.0,35.0,29.75,East,85,1.0,3.0,98,0.00,,,0.65,,2013-03-19 12:52:00,
2013-03-19 09:02:00,36.0,35.0,29.77,East,84,0.0,1.0,98,0.00,,,0.65,,2013-03-19 13:02:00,
2013-03-19 09:12:00,36.0,35.0,29.77,East,84,0.0,1.0,98,0.00,,,0.65,,2013-03-19 13:12:00,
2013-03-19 09:22:00,36.0,35.0,29.77,NNE,30,1.0,2.0,98,0.00,,,0.65,,2013-03-19 13:22:00,
2013-03-19 09:33:00,36.0,35.0,29.77,North,355,0.0,3.0,98,0.00,,,0.65,,2013-03-19 13:33:00,
2013-03-19 09:42:00,36.0,35.0,29.77,North,355,0.0,3.0,98,0.00,,,0.65,,2013-03-19 13:42:00,
2013-03-19 09:53:00,36.0,35.0,29.78,North,355,1.0,3.0,98,0.00,,,0.65,,2013-03-19 13:53:00,
2013-03-19 10:02:00,36.0,35.0,29.78,North,355,1.0,3.0,98,0.00,,,0.65,,2013-03-19 14:02:00,
2013-03-19 10:12:00,36.0,35.0,29.78,North,355,1.0,3.0,98,0.00,,,0.65,,2013-03-19 14:12:00,
2013-03-19 10:22:00,36.0,35.0,29.78,North,350,0.0,2.0,98,0.01,,,0.66,,2013-03-19 14:22:00,
2013-03-19 10:32:00,36.0,35.0,29.78,North,350,2.0,3.0,98,0.02,,,0.67,,2013-03-19 14:32:00,
2013-03-19 10:42:00,36.0,35.0,29.78,North,350,2.0,3.0,98,0.02,,,0.67,,2013-03-19 14:42:00,
2013-03-19 10:52:00,36.0,35.0,29.77,NNW,346,0.0,2.0,98,0.04,,,0.69,,2013-03-19 14:52:00,
2013-03-19 11:02:00,36.0,35.0,29.78,NNW,344,1.0,2.0,98,0.04,,,0.69,,2013-03-19 15:02:00,
2013-03-19 11:12:00,36.0,35.0,29.78,NNW,344,1.0,2.0,98,0.04,,,0.69,,2013-03-19 15:12:00,
2013-03-19 11:22:00,36.0,35.0,29.78,NW,315,1.0,3.0,98,0.03,,,0.69,,2013-03-19 15:22:00,
2013-03-19 11:34:00,38.0,37.0,29.78,NW,305,1.0,3.0,98,0.02,,,0.69,,2013-03-19 15:34:00,
2013-03-19 11:43:00,38.0,37.0,29.78,NW,305,1.0,3.0,98,0.02,,,0.69,,2013-03-19 15:43:00,
2013-03-19 11:54:00,38.0,37.0,29.78,NNW,340,1.0,4.0,97,0.00,,,0.69,,2013-03-19 15:54:00,
2013-03-19 12:04:00,38.0,37.0,29.78,NE,43,1.0,5.0,96,0.00,,,0.69,,2013-03-19 16:04:00,
2013-03-19 12:13:00,38.0,37.0,29.78,NE,43,1.0,5.0,96,0.00,,,0.69,,2013-03-19 16:13:00,
2013-03-19 12:24:00,38.0,37.0,29.78,NE,43,1.0,5.0,96,0.00,,,0.69,,2013-03-19 16:24:00,
2013-03-19 12:34:00,38.0,37.0,29.78,NE,43,1.0,5.0,96,0.00,,,0.69,,2013-03-19 16:34:00,
2013-03-19 12:44:00,38.0,37.0,29.78,NE,43,1.0,5.0,96,0.00,,,0.69,,2013-03-19 16:44:00,
2013-03-19 12:55:00,41.0,39.0,29.76,WNW,302,2.0,5.0,93,0.00,,,0.69,,2013-03-19 16:55:00,
2013-03-19 13:03:00,42.0,40.0,29.75,North,5,1.0,4.0,92,0.00,,,0.69,,2013-03-19 17:03:00,
2013-03-19 13:14:00,42.0,40.0,29.75,North,5,1.0,4.0,92,0.00,,,0.69,,2013-03-19 17:14:00,
2013-03-19 13:23:00,42.0,40.0,29.75,North,5,1.0,4.0,92,0.00,,,0.69,,2013-03-19 17:23:00,
2013-03-19 13:34:00,44.0,39.0,29.73,NNE,29,3.0,8.0,84,0.00,,,0.69,,2013-03-19 17:34:00,
2013-03-19 13:44:00,44.0,39.0,29.73,NNE,29,3.0,8.0,84,0.00,,,0.69,,2013-03-19 17:44:00,
2013-03-19 13:53:00,46.0,40.0,29.73,WNW,282,3.0,7.0,79,0.01,,,0.70,,2013-03-19 17:53:00,
2013-03-19 14:03:00,47.0,38.0,29.72,NNW,336,4.0,9.0,71,0.01,,,0.70,,2013-03-19 18:03:00,
2013-03-19 14:13:00,47.0,38.0,29.72,NNW,336,4.0,9.0,71,0.01,,,0.70,,2013-03-19 18:13:00,
2013-03-19 14:23:00,47.0,38.0,29.73,NNW,333,2.0,7.0,72,0.01,,,0.70,,2013-03-19 18:23:00,
2013-03-19 14:33:00,47.0,39.0,29.72,North,11,3.0,6.0,73,0.01,,,0.70,,2013-03-19 18:33:00,
2013-03-19 14:43:00,47.0,39.0,29.72,North,11,3.0,6.0,73,0.01,,,0.70,,2013-03-19 18:43:00,
2013-03-19 14:53:00,48.0,38.0,29.72,NNW,338,3.0,7.0,69,0.00,,,0.70,,2013-03-19 18:53:00,
2013-03-19 15:02:00,49.0,38.0,29.72,NW,326,2.0,5.0,65,0.00,,,0.70,,2013-03-19 19:02:00,
2013-03-19 15:12:00,49.0,38.0,29.72,NW,326,2.0,5.0,65,0.00,,,0.70,,2013-03-19 19:12:00,
2013-03-19 15:22:00,49.0,37.0,29.72,North,11,2.0,7.0,64,0.00,,,0.70,,2013-03-19 19:22:00,
2013-03-19 15:33:00,49.0,36.0,29.71,NNW,344,3.0,8.0,60,0.00,,,0.70,,2013-03-19 19:33:00,
2013-03-19 15:42:00,49.0,36.0,29.71,NNW,344,3.0,8.0,60,0.00,,,0.70,,2013-03-19 19:42:00,
2013-03-19 15:53:00,49.0,35.0,29.72,NW,322,2.0,8.0,59,0.00,,,0.70,,2013-03-19 19:53:00,
2013-03-19 16:03:00,50.0,35.0,29.72,West,267,3.0,8.0,56,0.00,,,0.70,,2013-03-19 20:03:00,
2013-03-19 16:12:00,50.0,34.0,29.71,NNW,344,2.0,7.0,53,0.00,,,0.70,,2013-03-19 20:12:00,
2013-03-19 16:22:00,50.0,34.0,29.71,NNW,344,2.0,7.0,53,0.00,,,0.70,,2013-03-19 20:22:00,
2013-03-19 16:32:00,50.0,34.0,29.71,NNW,344,2.0,7.0,53,0.00,,,0.70,,2013-03-19 20:32:00,
2013-03-19 16:43:00,50.0,34.0,29.71,NNW,344,2.0,7.0,53,0.00,,,0.70,,2013-03-19 20:43:00,
2013-03-19 16:53:00,49.0,32.0,29.70,NNW,327,3.0,10.0,52,0.00,,,0.70,,2013-03-19 20:53:00,
2013-03-19 17:02:00,49.0,32.0,29.70,NNW,327,3.0,10.0,52,0.00,,,0.70,,2013-03-19 21:02:00,
2013-03-19 17:12:00,50.0,32.0,29.70,WNW,295,3.0,6.0,50,0.00,,,0.69,,2013-03-19 21:12:00,
2013-03-19 17:23:00,50.0,32.0,29.70,WNW,295,3.0,6.0,50,0.00,,,0.69,,2013-03-19 21:23:00,
2013-03-19 17:34:00,50.0,32.0,29.70,West,281,4.0,7.0,49,0.00,,,0.69,,2013-03-19 21:34:00,
2013-03-19 17:43:00,50.0,32.0,29.70,West,281,4.0,7.0,49,0.00,,,0.69,,2013-03-19 21:43:00,
2013-03-19 17:53:00,50.0,32.0,29.70,WNW,291,3.0,9.0,50,0.00,,,0.69,,2013-03-19 21:53:00,
2013-03-19 18:03:00,50.0,32.0,29.70,WNW,287,2.0,6.0,50,0.00,,,0.69,,2013-03-19 22:03:00,
2013-03-19 18:13:00,49.0,34.0,29.70,West,281,0.0,3.0,55,0.00,,,0.68,,2013-03-19 22:13:00,
2013-03-19 18:23:00,49.0,34.0,29.70,West,281,0.0,3.0,55,0.00,,,0.68,,2013-03-19 22:23:00,
2013-03-19 18:33:00,48.0,35.0,29.70,NE,44,4.0,7.0,61,0.00,,,0.68,,2013-03-19 22:33:00,
2013-03-19 18:43:00,48.0,36.0,29.70,West,274,0.0,3.0,64,0.00,,,0.68,,2013-03-19 22:43:00,
2013-03-19 18:53:00,48.0,36.0,29.70,West,274,0.0,3.0,64,0.00,,,0.68,,2013-03-19 22:53:00,
2013-03-19 19:03:00,47.0,37.0,29.70,NNE,16,3.0,5.0,67,0.00,,,0.68,,2013-03-19 23:03:00,
2013-03-19 19:12:00,47.0,33.0,29.71,NNW,346,1.0,5.0,59,0.00,,,0.64,,2013-03-19 23:12:00,
2013-03-19 19:22:00,47.0,33.0,29.71,NNW,346,1.0,5.0,59,0.00,,,0.64,,2013-03-19 23:22:00,
2013-03-19 19:32:00,47.0,30.0,29.71,WSW,256,3.0,5.0,52,0.00,,,0.64,,2013-03-19 23:32:00,
2013-03-19 19:42:00,47.0,30.0,29.71,WSW,256,3.0,5.0,52,0.00,,,0.64,,2013-03-19 23:42:00,
2013-03-19 19:53:00,47.0,33.0,29.72,WNW,292,1.0,4.0,57,0.00,,,0.64,,2013-03-19 23:53:00,
2013-03-19 20:03:00,46.0,29.0,29.72,West,267,0.0,4.0,52,0.00,,,0.64,,2013-03-20 00:03:00,
2013-03-19 20:13:00,46.0,29.0,29.72,West,267,0.0,4.0,52,0.00,,,0.64,,2013-03-20 00:13:00,
2013-03-19 20:22:00,47.0,26.0,29.73,WNW,287,2.0,9.0,43,0.00,,,0.57,,2013-03-20 00:22:00,
2013-03-19 20:33:00,48.0,25.0,29.73,WNW,295,1.0,7.0,41,0.00,,,0.57,,2013-03-20 00:33:00,
2013-03-19 20:42:00,48.0,25.0,29.73,WNW,295,1.0,7.0,41,0.00,,,0.57,,2013-03-20 00:42:00,
2013-03-19 20:52:00,47.0,25.0,29.75,NNW,335,2.0,7.0,42,0.00,,,0.57,,2013-03-20 00:52:00,
2013-03-19 21:03:00,46.0,24.0,29.76,West,280,6.0,10.0,42,0.00,,,0.57,,2013-03-20 01:03:00,
2013-03-19 21:12:00,46.0,24.0,29.76,West,280,6.0,10.0,42,0.00,,,0.57,,2013-03-20 01:12:00,
2013-03-19 21:22:00,46.0,24.0,29.76,West,280,6.0,10.0,42,0.00,,,0.57,,2013-03-20 01:22:00,
2013-03-19 21:32:00,44.0,23.0,29.79,NNW,337,4.0,10.0,44,0.00,,,0.48,,2013-03-20 01:32:00,
2013-03-19 21:42:00,44.0,23.0,29.79,NNW,337,4.0,10.0,44,0.00,,,0.48,,2013-03-20 01:42:00,
2013-03-19 21:53:00,44.0,23.0,29.79,NNW,337,4.0,10.0,44,0.00,,,0.48,,2013-03-20 01:53:00,
2013-03-19 22:02:00,41.0,23.0,29.81,NW,304,2.0,6.0,48,0.00,,,0.48,,2013-03-20 02:02:00,
2013-03-19 22:12:00,41.0,23.0,29.81,NW,304,2.0,6.0,48,0.00,,,0.48,,2013-03-20 02:12:00,
2013-03-19 22:23:00,41.0,23.0,29.81,NW,304,2.0,6.0,48,0.00,,,0.48,,2013-03-20 02:23:00,
2013-03-19 22:32:00,40.0,23.0,29.82,North,360,2.0,9.0,50,0.00,,,0.36,,2013-03-20 02:32:00,
2013-03-19 22:42:00,40.0,23.0,29.82,North,360,2.0,9.0,50,0.00,,,0.36,,2013-03-20 02:42:00,
2013-03-19 22:53:00,39.0,21.0,29.83,WNW,291,2.0,5.0,49,0.00,,,0.36,,2013-03-20 02:53:00,
2013-03-19 23:02:00,38.0,22.0,29.83,NW,309,1.0,5.0,52,0.00,,,0.36,,2013-03-20 03:02:00,
2013-03-19 23:12:00,38.0,22.0,29.84,WNW,291,2.0,9.0,53,0.00,,,0.25,,2013-03-20 03:12:00,
2013-03-19 23:22:00,38.0,22.0,29.84,WNW,291,2.0,9.0,53,0.00,,,0.25,,2013-03-20 03:22:00,
2013-03-19 23:34:00,38.0,23.0,29.85,NW,325,2.0,7.0,54,0.00,,,0.25,,2013-03-20 03:34:00,
2013-03-19 23:42:00,38.0,23.0,29.85,NW,325,2.0,7.0,54,0.00,,,0.25,,2013-03-20 03:42:00,
2013-03-19 23:53:00,38.0,23.0,29.85,NW,325,2.0,7.0,54,0.00,,,0.25,,2013-03-20 03:53:00,